Location: Asheville, NC
(35.6000°N, 82.5500°W)
Time: 23:15:12

HO-68 - Pass Details

Date: 09 March 2018
Orbit: 1193 x 1204 km, 100.1° (Epoch: 20 March)

Event Time Altitude Azimuth Distance (km) Brightness Sun altitude
Rises 06:17:45 0° 29° (NNE) 4,112 ? -7.2°
Reaches altitude 10° 06:20:58 10° 42° (NE) 3,145 ? -6.6°
Maximum altitude 06:26:42 25° 95° (E) 2,199 ? -5.4°
Drops below altitude 10° 06:32:24 10° 148° (SSE) 3,133 ? -4.3°
Sets 06:35:33 0° 161° (SSE) 4,094 ? -3.6°
